Temperature
14 14 15 15 15 16 18 20 22 22 23 24 24 24 23 23 22 20 18 18 18 18 18 18 17 17 17 17 16 16 16 16 16 16 16 16 16 16 16 16 16 16 16 16 16 16 16 16 16
14 14 14 15 16 17 18 20 21 22 23 23 23 23 23 21 20 19 18 17 17 18 18 17 17 17 17 16 16 16 16 16 16 16 16 16 16 16 16 16 16 16 16 16 16 16 16 16 16
13 14 15 15 16 17 19 21 21 22 22 22 22 22 21 20 19 18 18 17 17 17 17 17 17 17 16 16 16 16 16 16 16 16 16 16 16 16 16 16 16 16 16 16 16 16 15 15 15
13 14 15 15 16 18 20 21 21 21 22 22 21 21 20 19 19 18 17 17 16 16 17 17 16 16 16 16 16 16 16 16 15 15 16 16 15 15 16 16 16 16 15 15 15 15 15 15 15
13 14 15 15 17 19 20 21 21 20 21 21 21 20 19 18 18 18 17 17 16 16 16 16 16 16 15 15 15 15 15 15 15 15 15 15 15 15 15 15 15 15 15 15 15 15 15 15 15
13 14 14 15 17 19 19 20 20 20 20 20 20 19 18 17 18 17 17 16 16 16 16 15 15 15 15 15 15 15 15 15 15 15 15 15 15 15 15 15 15 15 15 15 15 15 15 15 15
13 14 14 16 17 18 19 19 19 19 19 19 19 18 18 17 16 16 16 16 15 15 15 15 15 15 14 15 15 15 15 15 15 15 15 15 15 15 15 15 15 15 15 15 15 15 15 15 15
12 13 14 15 16 17 18 18 18 18 18 18 18 17 17 16 16 15 15 15 15 15 15 15 15 14 14 14 14 14 14 14 14 14 15 15 14 14 14 14 15 15 15 15 14 14 15 15 15
12 12 13 15 15 16 17 17 17 17 17 17 17 17 16 15 15 15 15 15 15 14 14 14 14 14 14 14 14 14 14 14 14 14 14 14 14 14 14 14 14 14 14 14 14 14 14 14 14
12 11 13 15 15 15 15 16 16 16 16 16 16 15 15 15 14 14 14 14 14 14 14 14 14 14 13 13 13 14 14 14 14 14 14 14 14 14 14 14 14 14 14 14 14 14 14 14 14
12 12 13 13 13 14 14 15 15 14 14 15 15 14 14 14 14 14 14 14 14 13 13 13 13 13 13 13 13 13 13 13 13 13 14 13 13 14 14 14 14 14 14 14 14 14 13 13 13
11 12 12 12 12 12 13 14 14 14 14 15 14 14 13 13 13 13 13 13 13 13 13 13 13 13 13 13 13 13 13 13 13 13 13 13 13 13 13 13 13 13 13 13 13 13 13 13 13
11 11 11 11 11 12 12 13 13 13 14 14 13 13 13 13 13 13 13 13 13 12 13 13 13 13 13 13 13 13 13 13 13 13 13 13 13 13 13 13 13 13 13 13 13 13 13 13 13
10 10 11 11 11 11 11 12 12 13 13 13 13 13 13 13 12 12 12 12 12 12 12 12 12 12 12 12 13 12 13 13 13 13 13 13 13 13 13 13 13 13 13 13 13 13 13 13 13
10 9 10 11 11 11 11 11 12 12 13 12 13 12 12 12 12 12 12 12 12 12 12 12 12 12 12 12 12 12 12 12 12 12 12 13 13 13 12 12 12 13 13 13 13 12 12 12 12
10 9 9 10 11 11 10 9 12 12 12 12 12 12 12 12 12 12 12 11 11 11 11 11 11 12 12 12 12 12 12 12 12 12 12 12 12 12 12 12 12 12 12 12 12 12 12 12 12
9 8 9 10 11 11 10 9 11 12 12 12 12 11 11 11 11 11 11 11 11 11 11 11 11 11 11 11 11 12 12 12 12 12 12 12 12 12 12 12 12 12 12 12 12 12 12 12 12
7 8 9 9 10 10 9 9 10 11 11 11 11 11 11 11 11 11 10 11 10 10 10 10 10 11 11 11 11 11 11 11 11 11 11 11 11 12 12 12 12 12 12 11 11 11 11 11 11
8 8 8 9 10 9 9 9 10 10 10 10 10 10 10 10 10 10 10 10 10 10 9 10 10 10 10 10 10 10 11 11 11 11 11 11 11 11 11 12 11 11 11 11 11 11 11 11 11
8 7 7 8 9 9 8 9 9 10 10 9 9 9 9 9 9 9 9 9 9 9 9 9 9 9 10 10 10 10 10 10 10 11 11 11 11 11 11 11 11 11 11 11 11 11 11 11 11
7 7 7 7 7 9 8 8 9 9 9 9 9 9 9 9 9 9 9 9 9 9 9 9 9 9 9 9 9 9 9 10 10 10 10 10 10 10 11 11 11 11 11 10 10 10 10 10 10
6 7 7 7 6 6 8 6 8 9 9 8 8 8 9 9 8 8 8 8 8 8 8 8 8 8 8 8 9 9 9 9 9 10 10 10 10 10 10 10 10 10 10 10 10 10 10 10 10
7 7 7 7 6 6 7 6 7 9 8 8 8 8 8 8 8 8 8 8 8 8 8 8 8 8 8 8 8 8 8 9 9 9 9 9 9 10 10 10 10 10 10 10 10 9 9 9 10
7 7 6 6 6 5 7 7 7 8 8 8 8 8 8 8 8 8 8 7 7 7 7 7 7 7 7 7 8 8 8 8 8 8 8 9 9 9 9 9 9 9 9 9 9 9 9 9 9
6 5 5 5 5 6 8 7 7 8 7 7 7 8 8 8 8 7 7 7 7 7 7 7 7 7 7 7 7 7 8 8 8 8 8 8 8 8 9 9 9 9 9 9 9 9 9 9 9
5 5 4 5 5 6 7 6 6 7 7 7 7 7 7 7 7 7 7 7 7 7 7 6 7 7 6 7 7 7 7 7 7 7 8 8 8 8 8 8 8 8 8 8 9 9 8 8 8
5 5 5 4 5 5 6 7 7 7 6 6 6 6 7 6 6 6 6 6 6 6 6 6 6 6 6 6 6 6 7 7 7 7 7 7 7 7 8 8 8 8 8 8 8 8 8 8 8
5 5 4 4 4 5 6 6 6 5 5 5 5 5 5 5 5 5 5 5 5 6 6 6 6 6 6 6 6 6 6 6 6 6 7 7 7 7 7 7 7 7 8 8 8 8 8 8 7
4 4 4 4 4 4 5 5 6 5 5 4 4 4 4 4 4 4 4 5 5 5 5 5 5 5 5 5 5 5 6 6 6 6 6 6 6 6 6 7 7 7 7 7 7 7 7 7 7
4 4 4 3 3 4 4 4 5 5 4 4 4 4 4 4 4 4 4 4 4 4 4 4 4 4 5 5 5 5 5 5 5 5 5 6 6 6 6 6 6 6 7 7 7 7 7 7 7
Wind_Speed
12 11 6 2 4 6 11 9 8 6 5 2 2 3 3 3 1 4 4 5 9 13 15 15 14 12 12 12 11 11 11 11 11 11 11 11 11 11 11 11 11 11 11 11 12 12 12 11 11
10 7 4 4 6 9 10 11 10 6 3 1 2 3 3 1 3 6 4 6 9 12 14 14 14 13 12 12 11 11 11 11 11 11 11 11 11 11 11 11 11 11 11 11 11 11 11 11 11
9 6 4 4 7 11 9 6 4 3 2 2 2 2 2 1 3 4 5 7 8 10 13 14 14 13 12 12 12 11 11 11 11 11 11 10 10 10 10 11 11 11 11 11 11 11 11 10 10
4 3 5 7 14 13 10 5 2 2 3 2 2 1 1 2 2 5 7 7 8 9 13 15 14 13 13 12 12 11 11 11 11 11 10 10 10 10 11 11 11 11 10 10 10 11 11 10 10
4 4 7 10 15 13 9 6 4 5 3 2 2 3 1 2 6 8 6 7 8 8 10 14 14 13 13 12 12 11 11 11 11 10 10 10 9 10 10 11 11 10 10 10 10 10 10 10 9
4 4 7 12 14 11 8 5 5 5 3 3 3 4 2 3 5 5 4 6 7 8 9 12 14 13 12 12 12 11 11 11 10 10 10 10 10 10 10 10 10 10 10 9 9 9 9 9 8
4 5 9 12 11 11 7 5 4 4 4 3 3 3 2 2 4 3 3 5 6 7 9 9 11 12 12 11 11 11 10 10 10 10 10 10 10 9 9 10 10 10 10 9 9 9 8 9 8
3 4 9 11 11 10 5 4 3 4 3 2 2 2 1 2 3 2 2 4 5 6 7 7 8 9 10 10 11 11 11 11 11 11 11 11 10 9 9 8 9 9 9 9 9 9 8 8 7
4 5 8 9 8 6 3 4 4 4 4 3 3 2 1 3 2 2 2 2 3 4 5 5 6 7 7 9 11 11 11 12 11 10 11 10 8 8 8 9 8 9 9 9 8 8 7 6 5
3 6 9 7 6 6 5 4 4 4 5 4 2 0 2 2 2 2 3 3 3 4 5 4 5 6 6 7 9 9 9 10 9 9 9 7 8 8 8 8 8 8 8 8 7 7 6 5 4
3 7 8 8 8 8 8 6 4 5 7 5 2 2 2 3 3 3 4 3 4 4 4 4 4 5 6 5 6 6 6 7 8 9 8 7 8 8 7 7 7 7 7 6 6 5 4 4 4
6 8 8 8 8 8 9 7 7 8 8 4 2 2 3 4 5 4 4 3 3 3 4 4 4 4 4 5 5 5 5 5 5 7 8 7 5 5 5 4 6 5 4 4 4 3 4 4 5
7 8 9 9 8 9 10 9 9 10 9 4 3 3 5 5 5 4 4 3 3 3 2 3 4 4 4 4 4 4 4 4 5 6 7 7 4 4 4 4 4 4 4 3 3 3 4 4 4
5 8 9 8 8 8 10 11 9 9 6 5 5 6 6 5 4 4 4 4 3 3 2 2 4 4 3 3 3 3 4 4 5 5 7 8 6 5 4 3 3 3 4 4 4 3 3 3 3
5 7 10 8 7 6 8 10 9 7 6 6 6 6 6 5 5 5 4 3 3 2 2 3 4 4 4 3 3 3 4 5 4 4 6 7 7 6 5 3 3 3 4 4 3 4 3 3 3
6 5 6 5 5 5 5 9 7 6 5 7 6 6 5 5 5 4 3 3 3 3 2 3 2 4 4 3 3 3 5 5 4 5 5 6 6 6 5 3 3 4 4 3 2 2 2 2 2
3 4 7 7 5 5 6 9 8 6 6 7 5 3 4 4 4 3 3 3 3 3 3 3 3 3 4 3 2 2 4 4 4 5 4 4 5 6 5 3 4 5 3 2 2 2 3 3 2
5 6 8 9 6 6 8 10 9 6 6 6 4 3 3 3 3 2 2 4 3 3 3 3 3 3 3 3 2 2 3 4 4 4 4 4 4 5 5 4 5 5 3 2 2 2 2 3 3
7 8 10 11 8 7 10 12 10 8 6 4 3 3 3 3 1 2 2 3 4 4 4 3 4 3 3 3 3 3 3 3 3 3 4 4 4 4 5 4 4 4 3 3 3 2 3 2 2
8 8 8 8 8 8 9 11 10 7 5 4 4 3 3 3 1 2 2 3 4 4 4 4 4 3 3 3 3 2 2 2 2 2 3 4 5 4 5 4 4 4 3 3 4 3 2 2 2
8 7 7 8 10 8 7 8 6 4 3 3 3 3 3 3 3 2 2 2 3 4 4 4 4 3 3 3 3 3 2 2 2 2 2 3 5 4 4 5 4 4 4 4 3 3 3 3 2
7 7 8 9 6 4 4 5 6 4 4 3 3 3 3 3 2 2 2 2 3 3 4 4 4 3 3 3 4 5 3 3 2 3 2 2 3 4 4 5 4 4 4 5 4 3 2 4 3
5 8 9 9 7 6 5 5 5 3 4 4 4 3 3 2 3 2 2 3 2 2 3 4 4 4 3 3 4 4 3 2 1 2 3 2 2 3 4 4 4 3 4 5 5 4 3 2 3
6 6 6 6 3 4 5 4 4 1 4 2 2 2 2 2 2 2 2 3 3 2 2 3 4 4 3 3 3 3 4 3 3 2 3 2 2 2 2 3 3 3 3 4 4 4 4 2 2
4 3 2 1 2 4 2 2 2 2 2 2 1 1 1 1 2 2 2 3 3 3 2 2 3 3 3 3 3 3 4 4 4 3 3 3 3 2 3 3 3 2 3 3 4 4 3 3 3
3 2 1 2 3 3 1 3 1 4 5 5 4 1 1 2 1 1 2 2 3 3 2 2 2 2 2 2 2 2 3 3 2 3 3 3 3 3 3 3 3 3 3 3 4 3 3 3 3
3 1 1 3 4 3 4 2 1 6 7 7 7 7 4 3 2 1 2 2 2 2 2 2 2 2 2 1 1 2 2 2 2 2 1 1 2 2 3 3 3 3 3 3 4 3 3 3 2
3 2 1 1 3 3 3 2 2 5 5 6 6 6 6 6 5 4 3 2 2 2 1 1 2 1 2 2 1 1 1 1 2 2 2 1 1 2 3 4 4 3 3 4 4 3 3 3 3
1 0 1 3 2 3 3 1 3 3 4 4 5 6 6 6 5 4 3 3 3 3 2 1 1 0 1 1 1 1 1 1 1 2 2 2 2 3 3 3 4 3 4 4 4 4 4 4 3
1 1 1 1 3 3 3 3 3 4 4 4 5 6 6 6 5 4 4 4 3 2 2 2 1 0 1 1 1 1 1 1 1 1 1 2 2 3 3 3 3 3 3 4 4 4 4 4 4
Wind_Direction
291 275 257 243 231 228 232 232 239 237 238 251 315 297 283 291 313 119 141 110 111 130 136 139 138 138 138 136 134 134 132 128 125 124 123 123 118 115 112 109 107 107 107 106 103 101 98 94 93
283 277 258 230 227 228 227 225 235 241 229 337 329 295 299 339 62 103 122 115 122 130 136 142 139 140 139 137 135 138 138 134 132 129 126 125 124 121 117 115 112 108 108 107 104 103 101 97 96
265 259 243 227 226 229 227 222 225 232 236 240 254 274 293 8 95 114 115 121 122 129 135 141 142 142 140 139 137 138 140 138 137 134 130 127 129 127 121 117 115 111 109 109 107 105 103 101 98
259 228 231 234 234 233 241 237 250 239 245 214 243 221 140 43 68 103 116 124 126 129 134 140 144 144 142 141 141 141 141 139 137 134 132 131 128 128 124 120 118 115 112 113 112 109 105 102 98
238 231 227 231 237 239 247 255 254 240 239 219 234 263 107 58 76 96 119 125 127 127 130 142 145 146 144 143 142 141 143 141 138 134 132 131 129 126 129 125 121 118 116 115 112 112 109 106 102
232 230 231 230 235 236 240 256 248 251 251 254 244 257 242 109 86 98 119 126 123 126 127 139 146 146 144 144 143 143 144 143 139 136 133 128 126 126 128 128 124 121 120 118 113 106 112 111 108
243 238 238 241 244 240 237 249 240 249 253 262 300 275 210 98 65 69 112 123 121 122 129 135 143 145 144 144 144 143 141 141 139 134 130 127 125 124 124 130 128 123 120 118 117 111 115 115 112
273 265 244 242 243 247 249 262 275 281 265 259 281 254 204 83 62 50 81 105 113 117 128 142 143 145 149 146 145 141 139 136 133 130 127 125 125 126 124 125 130 126 123 122 119 119 113 118 120
261 246 241 244 252 262 278 278 292 305 281 268 288 304 83 85 92 87 81 108 114 126 132 144 147 145 146 150 144 138 138 136 130 130 130 129 128 125 122 121 128 129 129 131 127 128 127 123 126
227 238 247 268 291 302 296 282 293 294 272 255 258 30 114 116 139 177 169 169 164 156 151 148 154 147 147 151 143 145 146 143 143 141 140 138 126 121 120 123 127 133 135 140 143 147 147 145 134
252 250 269 292 312 311 302 286 277 279 265 255 225 186 177 176 204 209 201 191 180 168 157 146 148 146 148 146 148 147 146 146 146 146 147 134 127 128 127 128 131 140 145 144 149 150 147 127 112
262 274 277 286 306 301 296 286 274 266 271 276 251 220 210 211 213 211 208 199 175 163 161 150 141 144 148 147 148 149 148 147 148 151 149 139 137 137 141 145 151 151 149 145 151 145 129 121 115
270 278 279 278 284 290 293 283 274 270 278 276 237 230 228 220 215 212 207 210 185 163 145 154 138 135 145 145 149 147 148 150 147 147 148 145 144 152 147 146 150 148 146 154 147 133 125 114 105
279 288 287 278 280 285 286 280 265 266 280 266 236 221 223 228 212 203 202 208 183 165 146 140 142 136 139 148 151 148 144 136 135 143 153 151 148 149 150 151 148 139 144 140 134 133 126 117 109
267 278 282 263 267 271 281 272 253 262 266 262 243 230 224 225 213 205 194 192 180 171 158 135 154 141 137 150 156 147 140 134 135 143 151 149 149 151 150 152 153 146 143 132 124 125 120 130 129
256 262 271 268 261 267 270 263 268 267 257 251 242 233 225 225 218 208 189 176 167 157 142 130 149 143 136 155 155 153 140 136 137 138 141 141 146 151 146 154 155 143 136 131 139 151 144 144 143
243 268 279 287 257 265 263 269 272 285 269 256 244 246 231 225 218 198 183 159 152 154 143 130 131 142 143 135 132 139 136 134 138 134 135 143 146 148 145 152 150 140 134 146 161 155 155 146 136
286 283 284 282 274 273 271 275 277 275 271 260 241 242 248 232 207 162 162 152 147 145 137 135 125 139 141 123 116 135 125 127 130 134 143 149 149 151 142 148 150 143 146 163 157 155 144 140 144
291 280 284 291 296 281 267 272 276 274 264 263 242 226 244 241 180 133 134 151 144 145 143 146 139 144 145 145 151 164 157 148 142 139 149 153 151 150 151 147 147 148 159 169 162 144 139 131 126
291 282 285 299 307 292 268 268 268 265 253 252 251 241 240 260 228 154 154 162 156 164 166 152 147 154 161 168 162 166 162 156 155 136 142 157 160 161 161 150 152 149 148 162 164 148 154 159 153
286 281 295 301 310 286 276 270 245 243 229 243 250 238 239 221 219 188 161 170 167 176 171 159 155 153 152 151 132 124 115 124 135 153 173 166 164 161 157 154 152 152 154 163 169 164 164 173 198
286 300 297 295 296 283 271 276 258 230 221 232 247 244 247 216 193 169 148 169 180 178 161 157 154 148 149 154 149 149 159 167 194 182 179 170 161 159 159 157 154 161 159 161 170 170 167 167 180
300 306 287 275 273 283 258 249 275 222 230 231 235 241 241 208 178 171 157 165 162 151 157 161 155 154 155 156 157 160 163 158 155 163 168 167 158 159 160 158 160 169 165 162 165 163 165 181 177
309 304 286 259 245 268 243 226 281 240 251 245 233 235 221 202 169 160 154 148 145 133 143 154 152 157 162 158 166 166 160 156 158 167 165 171 172 173 166 157 161 174 170 166 167 163 165 176 182
329 334 341 322 228 247 230 230 269 17 36 36 14 244 227 174 134 153 152 151 146 144 149 143 144 156 170 164 173 174 167 169 177 174 177 184 181 188 192 179 177 179 170 166 158 159 175 181 182
302 324 318 291 277 300 293 235 292 34 49 41 27 26 83 71 68 88 127 142 143 143 149 140 142 153 165 169 175 172 166 170 185 191 182 192 192 194 183 179 177 171 169 169 160 165 179 180 174
302 275 306 296 289 275 252 229 133 30 34 25 19 15 25 31 28 32 75 108 124 138 148 161 148 153 156 172 169 171 172 180 182 190 166 181 174 183 174 176 175 168 171 171 166 170 174 169 175
292 322 335 288 306 291 265 258 344 8 8 11 13 7 4 14 18 20 40 87 92 107 112 129 133 173 165 167 176 176 178 186 177 164 167 167 163 169 176 173 170 169 173 172 167 168 169 167 179
242 270 269 269 280 288 293 308 19 28 24 18 9 4 358 9 9 13 22 56 91 89 94 96 89 65 148 155 143 112 112 143 146 165 184 175 169 174 179 171 169 171 172 170 170 175 169 170 175
311 272 199 239 272 263 285 293 7 48 45 32 17 7 1 8 11 23 28 43 64 78 85 89 85 150 123 130 106 91 92 91 118 176 185 163 176 181 173 168 171 172 175 174 176 180 174 177 184
Height
1493 1495 1497 1500 1501 1499 1491 1480 1474 1474 1474 1475 1476 1477 1478 1481 1485 1494 1493 1492 1492 1493 1495 1498 1500 1502 1504 1506 1508 1510 1512 1514 1516 1517 1519 1521 1522 1523 1525 1525 1526 1527 1528 1529 1530 1531 1531 1532 1533
1492 1495 1498 1498 1497 1496 1486 1476 1475 1473 1474 1475 1477 1478 1479 1482 1485 1488 1490 1491 1492 1493 1494 1497 1499 1502 1504 1506 1508 1510 1512 1514 1516 1517 1519 1521 1522 1523 1525 1525 1526 1527 1528 1529 1530 1531 1532 1532 1533
1491 1493 1496 1493 1489 1486 1478 1471 1471 1472 1474 1475 1478 1479 1481 1484 1486 1487 1489 1490 1492 1493 1494 1497 1499 1501 1503 1505 1507 1510 1512 1514 1515 1517 1519 1520 1522 1523 1524 1525 1526 1527 1528 1529 1530 1531 1532 1533 1533
1491 1493 1493 1490 1483 1475 1471 1471 1471 1472 1474 1475 1478 1480 1482 1485 1486 1487 1488 1489 1491 1493 1494 1496 1498 1501 1503 1505 1507 1509 1511 1513 1515 1517 1518 1520 1521 1523 1524 1525 1526 1527 1528 1529 1530 1531 1532 1533 1533
1490 1490 1489 1485 1478 1471 1470 1470 1471 1472 1474 1475 1478 1479 1482 1484 1485 1486 1488 1489 1491 1492 1494 1496 1498 1500 1502 1504 1506 1508 1511 1512 1514 1516 1518 1519 1521 1522 1523 1525 1526 1527 1528 1529 1530 1531 1531 1532 1533
1488 1486 1485 1481 1473 1469 1469 1471 1472 1472 1474 1476 1478 1480 1483 1484 1484 1485 1488 1489 1491 1491 1493 1495 1498 1499 1502 1504 1506 1508 1510 1512 1513 1515 1517 1518 1520 1521 1523 1524 1525 1526 1527 1528 1529 1530 1531 1532 1533
1486 1483 1480 1475 1473 1470 1469 1471 1471 1473 1475 1477 1478 1480 1482 1484 1484 1485 1487 1489 1490 1491 1492 1494 1496 1499 1501 1503 1505 1507 1509 1511 1512 1514 1516 1517 1519 1520 1522 1523 1525 1526 1527 1528 1529 1530 1530 1531 1532
1483 1482 1477 1474 1472 1470 1470 1471 1472 1473 1475 1477 1479 1480 1481 1483 1483 1484 1486 1488 1489 1490 1491 1493 1495 1497 1499 1501 1504 1506 1507 1509 1511 1513 1515 1516 1518 1519 1521 1522 1524 1525 1526 1527 1529 1530 1530 1531 1532
1482 1484 1478 1473 1472 1471 1471 1472 1473 1474 1474 1475 1477 1478 1480 1481 1482 1483 1485 1487 1488 1489 1490 1492 1493 1495 1497 1499 1501 1504 1506 1507 1509 1511 1513 1515 1516 1518 1519 1521 1523 1524 1525 1527 1528 1528 1529 1530 1531
1481 1481 1475 1473 1473 1473 1472 1472 1473 1474 1473 1474 1476 1477 1479 1480 1481 1482 1483 1485 1486 1488 1489 1491 1492 1493 1495 1497 1499 1501 1503 1505 1507 1509 1511 1513 1515 1516 1518 1520 1521 1523 1524 1525 1526 1527 1528 1529 1530
1479 1477 1475 1474 1474 1474 1473 1473 1473 1474 1473 1473 1475 1477 1478 1478 1480 1481 1482 1483 1485 1486 1487 1489 1490 1491 1493 1494 1496 1499 1501 1503 1505 1507 1509 1511 1513 1514 1516 1518 1519 1521 1522 1524 1525 1526 1527 1528 1528
1479 1476 1476 1475 1475 1475 1474 1473 1473 1473 1472 1473 1474 1475 1476 1477 1478 1480 1481 1482 1484 1485 1485 1487 1488 1489 1491 1492 1494 1497 1499 1501 1503 1505 1507 1509 1511 1512 1514 1516 1517 1519 1520 1522 1523 1524 1525 1526 1527
1478 1477 1476 1476 1475 1475 1474 1472 1472 1470 1471 1471 1471 1473 1474 1475 1477 1478 1480 1481 1482 1483 1484 1485 1486 1487 1489 1490 1492 1495 1497 1499 1501 1503 1505 1507 1509 1510 1512 1514 1516 1517 1518 1520 1521 1523 1524 1525 1526
1478 1478 1475 1475 1474 1474 1473 1471 1470 1467 1468 1468 1469 1470 1471 1473 1474 1475 1477 1479 1480 1480 1482 1483 1484 1486 1487 1488 1490 1492 1494 1497 1499 1501 1503 1505 1506 1508 1510 1512 1513 1515 1516 1518 1519 1521 1522 1523 1524
1478 1478 1475 1472 1473 1472 1473 1469 1466 1465 1466 1466 1466 1467 1469 1470 1471 1472 1474 1475 1477 1478 1480 1481 1482 1484 1485 1486 1488 1490 1492 1494 1497 1499 1501 1503 1504 1506 1508 1509 1511 1513 1514 1516 1517 1519 1520 1521 1522
1477 1477 1476 1470 1470 1470 1474 1469 1464 1464 1464 1464 1464 1465 1466 1468 1469 1470 1472 1473 1474 1475 1477 1478 1479 1481 1483 1484 1485 1488 1490 1492 1495 1497 1499 1500 1502 1504 1505 1507 1509 1511 1512 1513 1515 1517 1518 1519 1520
1476 1478 1474 1470 1468 1468 1470 1467 1462 1462 1462 1461 1461 1462 1464 1465 1467 1468 1469 1470 1471 1473 1474 1475 1477 1478 1480 1482 1483 1485 1487 1490 1492 1494 1496 1498 1500 1501 1503 1504 1506 1508 1510 1511 1513 1514 1516 1517 1518
1480 1477 1473 1471 1467 1467 1468 1465 1461 1460 1460 1460 1460 1461 1462 1463 1464 1465 1466 1468 1469 1470 1472 1473 1474 1476 1478 1479 1481 1483 1485 1487 1490 1492 1494 1496 1497 1499 1500 1502 1503 1505 1507 1509 1511 1512 1514 1515 1516
1477 1476 1475 1470 1466 1466 1465 1462 1459 1458 1458 1458 1458 1459 1460 1461 1462 1463 1464 1465 1466 1468 1469 1471 1472 1474 1475 1477 1479 1479 1481 1484 1486 1489 1491 1493 1495 1496 1498 1499 1501 1502 1505 1507 1508 1510 1511 1512 1513
1477 1475 1474 1469 1466 1465 1462 1460 1456 1455 1455 1456 1457 1457 1458 1459 1460 1460 1461 1463 1463 1465 1467 1468 1469 1471 1473 1475 1476 1478 1479 1481 1484 1487 1489 1491 1492 1493 1495 1496 1498 1500 1501 1504 1505 1507 1508 1509 1511
1475 1475 1474 1473 1468 1463 1462 1459 1454 1451 1452 1454 1454 1456 1457 1457 1457 1458 1459 1460 1461 1463 1464 1466 1467 1469 1471 1472 1473 1476 1477 1479 1482 1484 1486 1488 1489 1491 1492 1493 1495 1497 1499 1501 1502 1503 1505 1507 1509
1476 1472 1472 1471 1473 1470 1465 1467 1452 1449 1450 1451 1452 1453 1454 1454 1455 1456 1456 1458 1459 1461 1462 1463 1465 1466 1468 1470 1471 1472 1473 1475 1478 1480 1483 1485 1486 1488 1489 1491 1492 1494 1496 1498 1499 1501 1503 1504 1506
1475 1472 1470 1470 1470 1471 1464 1466 1455 1447 1449 1449 1449 1450 1451 1452 1452 1453 1454 1455 1457 1458 1460 1461 1463 1464 1465 1467 1468 1470 1471 1473 1476 1478 1480 1481 1483 1485 1486 1488 1489 1491 1493 1495 1496 1498 1500 1501 1503
1475 1472 1468 1466 1469 1473 1461 1462 1456 1450 1447 1446 1447 1447 1448 1449 1451 1452 1453 1454 1455 1457 1458 1459 1460 1461 1463 1464 1466 1467 1468 1470 1473 1474 1476 1478 1480 1481 1483 1485 1486 1488 1490 1491 1494 1495 1497 1498 1500
1477 1478 1478 1475 1474 1468 1453 1457 1456 1448 1446 1446 1446 1446 1447 1448 1449 1450 1451 1452 1453 1454 1455 1456 1457 1459 1460 1462 1463 1464 1466 1467 1470 1471 1473 1475 1476 1478 1479 1481 1483 1485 1487 1488 1490 1492 1494 1496 1497
1478 1479 1484 1483 1474 1464 1456 1458 1455 1448 1447 1446 1446 1446 1447 1447 1448 1449 1449 1450 1451 1452 1453 1454 1455 1457 1458 1459 1460 1461 1463 1465 1467 1469 1471 1472 1474 1475 1477 1478 1480 1482 1484 1485 1487 1489 1491 1493 1494
1480 1480 1479 1482 1475 1474 1462 1452 1449 1447 1448 1448 1448 1447 1447 1447 1448 1448 1448 1449 1450 1451 1452 1453 1453 1454 1456 1457 1458 1459 1460 1462 1464 1466 1468 1469 1471 1472 1474 1475 1477 1479 1480 1482 1484 1486 1488 1489 1490
1481 1479 1482 1483 1480 1472 1458 1454 1457 1455 1453 1451 1450 1449 1449 1448 1447 1447 1447 1448 1449 1450 1451 1452 1452 1453 1454 1456 1456 1457 1458 1460 1461 1463 1464 1466 1467 1469 1470 1472 1474 1475 1477 1479 1481 1483 1485 1486 1487
1482 1483 1482 1481 1479 1478 1469 1465 1457 1456 1454 1454 1452 1451 1450 1448 1447 1447 1447 1447 1448 1449 1450 1450 1451 1452 1453 1453 1454 1455 1456 1457 1458 1460 1462 1463 1465 1467 1467 1469 1470 1472 1473 1476 1478 1479 1481 1483 1484
1481 1480 1482 1486 1483 1477 1474 1472 1458 1457 1455 1454 1453 1452 1451 1449 1448 1447 1447 1447 1448 1448 1449 1449 1450 1451 1451 1452 1452 1453 1454 1455 1456 1458 1459 1461 1463 1464 1465 1466 1467 1469 1470 1472 1474 1476 1478 1480 1481